Terminal Aerodrome Forecast
Issued by NWS Grand Junction, CO

Home | Current Version | Previous Version | Text Only | Print | Product List | Glossary On
Versions: 1 2 3 4 5 6 7 8 9 10 11 12
000
FTUS45 KGJT 152320
TAFGJT
TAF
KGJT 152320Z 1600/1624 00000KT P6SM SKC
     FM160400 08004KT P6SM FEW200 FEW250
     FM162000 29004KT P6SM SCT150 BKN200=

USA.gov is the U.S. government's official web portal to all federal, state and local government web resources and services.